| time (UTC) | temp F | wind direction | speed knots | gust knots | rain 1hr in | rain 24hr in | rain mn in | humidity % | barometer mb |
| 20260906224925 | 91 | 76 | 2.6 | 8.7 | 0.00 | 0.00 | 0.00 | 57 | 1012.9 |
| 20260906223917 | 91 | 46 | 2.6 | 8.7 | 0.00 | 0.00 | 0.00 | 57 | 1012.9 |
| 20260906223417 | 92 | 59 | 1.7 | 8.7 | 0.00 | 0.00 | 0.00 | 57 | 1012.9 |
| 20260906222918 | 92 | 64 | 1.7 | 7.8 | 0.00 | 0.00 | 0.00 | 58 | 1012.9 |
| 20260906222417 | 91 | 82 | 2.6 | 7.8 | 0.00 | 0.00 | 0.00 | 57 | 1013.0 |
| 20260906221917 | 91 | 9 | 2.6 | 9.6 | 0.00 | 0.00 | 0.00 | 58 | 1013.1 |
| 20260906221418 | 91 | 0 | 2.6 | 9.6 | 0.00 | 0.00 | 0.00 | 58 | 1013.2 |
| 20260906220917 | 90 | 69 | 2.6 | 7.8 | 0.00 | 0.00 | 0.00 | 59 | 1013.2 |
| 20260906220417 | 90 | 0 | 1.7 | 7.0 | 0.00 | 0.00 | 0.00 | 60 | 1013.2 |
| 20260906215917 | 89 | 90 | 1.7 | 7.8 | 0.00 | 0.00 | 0.00 | 60 | 1013.4 |
| 20260906215417 | 89 | 15 | 2.6 | 7.8 | 0.00 | 0.00 | 0.00 | 60 | 1013.3 |
| 20260906214917 | 90 | 34 | 2.6 | 7.8 | 0.00 | 0.00 | 0.00 | 59 | 1013.4 |
| 20260906214418 | 91 | 33 | 1.7 | 7.8 | 0.00 | 0.00 | 0.00 | 58 | 1013.3 |
| 20260906214146 | 92 | 46 | 1.7 | 7.8 | 0.00 | 0.00 | 0.00 | 57 | 1013.4 |
| 20260906213415 | 92 | 56 | 0.9 | 7.8 | 0.00 | 0.00 | 0.00 | 54 | 1013.4 |
| 20260906212916 | 93 | 240 | 0.9 | 3.5 | 0.00 | 0.00 | 0.00 | 50 | 1013.4 |
| 20260906212415 | 92 | 240 | 0.9 | 3.5 | 0.00 | 0.00 | 0.00 | 50 | 1013.4 |
| 20260906211917 | 92 | 228 | 0.9 | 2.6 | 0.00 | 0.00 | 0.00 | 49 | 1013.4 |
| 20260906211412 | 92 | 112 | 1.7 | 3.5 | 0.00 | 0.00 | 0.00 | 50 | 1013.5 |
| 20260906210906 | 92 | 111 | 1.7 | 6.1 | 0.00 | 0.00 | 0.00 | 50 | 1013.5 |
| 20260906210359 | 93 | 106 | 1.7 | 6.1 | 0.00 | 0.00 | 0.00 | 49 | 1013.6 |
| 20260906205854 | 93 | 121 | 0.9 | 6.1 | 0.00 | 0.00 | 0.00 | 50 | 1013.6 |
| 20260906205348 | 94 | 157 | 0.9 | 6.1 | 0.00 | 0.00 | 0.00 | 50 | 1013.7 |
| 20260906204841 | 94 | 151 | 0.9 | 7.0 | 0.00 | 0.00 | 0.00 | 49 | 1013.7 |
| 20260906204336 | 94 | 123 | 1.7 | 7.0 | 0.00 | 0.00 | 0.00 | 49 | 1013.7 |
| 20260906203830 | 94 | 123 | 2.6 | 7.8 | 0.00 | 0.00 | 0.00 | 48 | 1013.8 |
| 20260906203323 | 95 | 157 | 1.7 | 7.8 | 0.00 | 0.00 | 0.00 | 47 | 1013.9 |
| 20260906202818 | 95 | 230 | 1.7 | 6.1 | 0.00 | 0.00 | 0.00 | 49 | 1013.7 |
| 20260906202312 | 95 | 228 | 1.7 | 7.8 | 0.00 | 0.00 | 0.00 | 49 | 1013.8 |
| 20260906201806 | 95 | 180 | 2.6 | 7.8 | 0.00 | 0.00 | 0.00 | 49 | 1013.9 |
| 20260906201530 | 95 | 170 | 2.6 | 7.0 | 0.00 | 0.00 | 0.00 | 49 | 1013.9 |
| 20260906200753 | 95 | 186 | 1.7 | 7.0 | 0.00 | 0.00 | 0.00 | 48 | 1014.0 |
| 20260906200519 | 95 | 238 | 2.6 | 8.7 | 0.00 | 0.00 | 0.00 | 48 | 1014.1 |
| 20260906195742 | 94 | 121 | 2.6 | 8.7 | 0.00 | 0.00 | 0.00 | 48 | 1014.2 |
| 20260906195236 | 94 | 0 | 2.6 | 7.0 | 0.00 | 0.00 | 0.00 | 46 | 1014.2 |
| 20260906194730 | 94 | 85 | 2.6 | 7.0 | 0.00 | 0.00 | 0.00 | 45 | 1014.3 |
| 20260906194227 | 94 | 114 | 2.6 | 6.1 | 0.00 | 0.00 | 0.00 | 46 | 1014.3 |
| 20260906193725 | 94 | 159 | 1.7 | 6.1 | 0.00 | 0.00 | 0.00 | 47 | 1014.4 |
| 20260906193453 | 94 | 105 | 2.6 | 9.6 | 0.00 | 0.00 | 0.00 | 47 | 1014.5 |
| 20260906192723 | 94 | 102 | 2.6 | 9.6 | 0.00 | 0.00 | 0.00 | 49 | 1014.5 |
| 20260906192453 | 95 | 128 | 0.9 | 7.8 | 0.00 | 0.00 | 0.00 | 48 | 1014.6 |
| 20260906191721 | 94 | 161 | 0.9 | 5.2 | 0.00 | 0.00 | 0.00 | 50 | 1014.7 |
| 20260906191219 | 94 | 119 | 1.7 | 7.8 | 0.00 | 0.00 | 0.00 | 49 | 1014.8 |
| 20260906190947 | 94 | 149 | 1.7 | 7.8 | 0.00 | 0.00 | 0.00 | 50 | 1014.8 |
| 20260906190217 | 94 | 90 | 1.7 | 5.2 | 0.00 | 0.00 | 0.00 | 49 | 1014.9 |
| 20260906185717 | 94 | 155 | 1.7 | 7.0 | 0.00 | 0.00 | 0.00 | 52 | 1014.9 |
| 20260906185217 | 94 | 149 | 1.7 | 7.0 | 0.00 | 0.00 | 0.00 | 52 | 1014.9 |
| 20260906184717 | 93 | 165 | 1.7 | 7.0 | 0.00 | 0.00 | 0.00 | 51 | 1015.2 |
| 20260906184217 | 93 | 150 | 2.6 | 6.1 | 0.00 | 0.00 | 0.00 | 54 | 1015.2 |
| 20260906183712 | 93 | 141 | 1.7 | 6.1 | 0.00 | 0.00 | 0.00 | 52 | 1015.0 |
| 20260906182946 | 93 | 166 | 1.7 | 7.8 | 0.00 | 0.00 | 0.00 | 54 | 1015.2 |
| 20260906182446 | 94 | 157 | 1.7 | 7.8 | 0.00 | 0.00 | 0.00 | 54 | 1015.3 |
| 20260906181712 | 94 | 254 | 1.7 | 7.8 | 0.00 | 0.00 | 0.00 | 53 | 1015.3 |
| 20260906181212 | 93 | 153 | 1.7 | 7.8 | 0.00 | 0.00 | 0.00 | 56 | 1015.5 |
| 20260906180712 | 93 | 171 | 0.9 | 5.2 | 0.00 | 0.00 | 0.00 | 56 | 1015.6 |
| 20260906180444 | 92 | 104 | 1.7 | 5.2 | 0.00 | 0.00 | 0.00 | 56 | 1015.6 |
| 20260906175712 | 91 | 115 | 2.6 | 7.0 | 0.00 | 0.00 | 0.00 | 58 | 1015.7 |
| 20260906175208 | 92 | 180 | 2.6 | 7.8 | 0.00 | 0.00 | 0.00 | 56 | 1015.8 |
| 20260906174709 | 92 | 139 | 1.7 | 7.8 | 0.00 | 0.00 | 0.00 | 58 | 1015.9 |
| 20260906174209 | 91 | 238 | 1.7 | 6.1 | 0.00 | 0.00 | 0.00 | 59 | 1016.0 |
| 20260906173708 | 91 | 133 | 1.7 | 6.1 | 0.00 | 0.00 | 0.00 | 60 | 1016.1 |
| 20260906173440 | 91 | 126 | 2.6 | 7.8 | 0.00 | 0.00 | 0.00 | 59 | 1016.2 |
| 20260906172707 | 92 | 98 | 1.7 | 7.8 | 0.00 | 0.00 | 0.00 | 59 | 1016.3 |
| 20260906172205 | 91 | 130 | 1.7 | 7.8 | 0.00 | 0.00 | 0.00 | 59 | 1016.4 |
| 20260906171703 | 91 | 148 | 0.9 | 7.8 | 0.00 | 0.00 | 0.00 | 61 | 1016.4 |
| 20260906171202 | 91 | 200 | 0.9 | 3.5 | 0.00 | 0.00 | 0.00 | 60 | 1016.4 |
| 20260906170702 | 90 | 214 | 1.7 | 5.2 | 0.00 | 0.00 | 0.00 | 60 | 1016.4 |
| 20260906170202 | 90 | 223 | 0.9 | 5.2 | 0.00 | 0.00 | 0.00 | 60 | 1016.5 |
| 20260906165702 | 90 | 286 | 1.7 | 7.8 | 0.00 | 0.00 | 0.00 | 60 | 1016.4 |
| 20260906165203 | 90 | 290 | 1.7 | 7.8 | 0.00 | 0.00 | 0.00 | 61 | 1016.5 |
| 20260906164702 | 90 | 311 | 0.9 | 6.1 | 0.00 | 0.00 | 0.00 | 61 | 1016.5 |
| 20260906164201 | 90 | 168 | 0.9 | 4.3 | 0.00 | 0.00 | 0.00 | 61 | 1016.5 |
| 20260906163657 | 90 | 148 | 0.9 | 4.3 | 0.00 | 0.00 | 0.00 | 61 | 1016.5 |
| 20260906163150 | 89 | 150 | 0.9 | 4.3 | 0.00 | 0.00 | 0.00 | 63 | 1016.5 |
| 20260906162643 | 89 | 151 | 1.7 | 5.2 | 0.00 | 0.00 | 0.00 | 62 | 1016.5 |
| 20260906162137 | 89 | 168 | 1.7 | 5.2 | 0.00 | 0.00 | 0.00 | 63 | 1016.4 |
| 20260906161632 | 89 | 250 | 0.9 | 3.5 | 0.00 | 0.00 | 0.00 | 64 | 1016.4 |
| 20260906161126 | 88 | 294 | 0.9 | 5.2 | 0.00 | 0.00 | 0.00 | 64 | 1016.5 |
| 20260906160620 | 88 | 213 | 1.7 | 6.1 | 0.00 | 0.00 | 0.00 | 64 | 1016.6 |
| 20260906160113 | 88 | 167 | 0.9 | 6.1 | 0.00 | 0.00 | 0.00 | 65 | 1016.5 |
| 20260906155608 | 88 | 285 | 0.9 | 3.5 | 0.00 | 0.00 | 0.00 | 66 | 1016.5 |
| 20260906155102 | 87 | 284 | 1.7 | 4.3 | 0.00 | 0.00 | 0.00 | 65 | 1016.4 |
| 20260906154556 | 87 | 198 | 0.9 | 4.3 | 0.00 | 0.00 | 0.00 | 65 | 1016.4 |
| 20260906154050 | 87 | 151 | 0.9 | 4.3 | 0.00 | 0.00 | 0.00 | 67 | 1016.3 |
| 20260906153544 | 87 | 243 | 0.9 | 4.3 | 0.00 | 0.00 | 0.00 | 66 | 1016.3 |
| 20260906153037 | 87 | 177 | 0.9 | 4.3 | 0.00 | 0.00 | 0.00 | 66 | 1016.3 |
| 20260906152804 | 87 | 225 | 0.9 | 3.5 | 0.00 | 0.00 | 0.00 | 67 | 1016.3 |
| 20260906152026 | 87 | 233 | 1.7 | 7.0 | 0.00 | 0.00 | 0.00 | 67 | 1016.4 |
| 20260906151520 | 86 | 137 | 0.9 | 7.0 | 0.00 | 0.00 | 0.00 | 69 | 1016.3 |
| 20260906151245 | 86 | 210 | 0.9 | 3.5 | 0.00 | 0.00 | 0.00 | 69 | 1016.3 |
| 20260906150508 | 85 | 212 | 0.9 | 4.3 | 0.00 | 0.00 | 0.00 | 69 | 1016.2 |
| 20260906150002 | 85 | 217 | 0.9 | 5.2 | 0.00 | 0.00 | 0.00 | 70 | 1016.2 |
| 20260906145222 | 85 | 126 | 0.9 | 3.5 | 0.00 | 0.00 | 0.00 | 71 | 1016.1 |
| 20260906144444 | 85 | 244 | 0.9 | 4.3 | 0.00 | 0.00 | 0.00 | 70 | 1016.0 |
| 20260906143938 | 85 | 159 | 1.7 | 4.3 | 0.00 | 0.00 | 0.00 | 71 | 1016.0 |
| 20260906143433 | 85 | 159 | 0.9 | 4.3 | 0.00 | 0.00 | 0.00 | 71 | 1016.1 |
| 20260906142926 | 84 | 153 | 0.9 | 4.3 | 0.00 | 0.00 | 0.00 | 72 | 1016.0 |
| 20260906142420 | 84 | 153 | 0.9 | 4.3 | 0.00 | 0.00 | 0.00 | 72 | 1016.1 |
| 20260906141913 | 83 | 184 | 0.9 | 4.3 | 0.00 | 0.00 | 0.00 | 72 | 1016.1 |
| 20260906141407 | 83 | 196 | 0.9 | 3.5 | 0.00 | 0.00 | 0.00 | 74 | 1016.1 |
| 20260906140901 | 83 | 254 | 0.9 | 3.5 | 0.00 | 0.00 | 0.00 | 75 | 1016.0 |
| 20260906140356 | 82 | 256 | 0.0 | 3.5 | 0.00 | 0.00 | 0.00 | 75 | 1016.0 |
| 20260906135850 | 82 | 265 | 0.9 | 5.2 | 0.00 | 0.00 | 0.00 | 77 | 1016.0 |
| 20260906135344 | 82 | 268 | 0.9 | 5.2 | 0.00 | 0.00 | 0.00 | 77 | 1015.9 |
| 20260906135109 | 82 | 158 | 0.0 | 1.7 | 0.00 | 0.00 | 0.00 | 80 | 1015.8 |
| 20260906134332 | 81 | 148 | 0.0 | 0.0 | 0.00 | 0.00 | 0.00 | 80 | 1015.7 |
| 20260906134104 | 81 | 148 | 0.0 | 0.0 | 0.00 | 0.00 | 0.00 | 81 | 1015.7 |
| 20260906133333 | 81 | 148 | 0.0 | 0.0 | 0.00 | 0.00 | 0.00 | 82 | 1015.7 |
| 20260906132832 | 80 | 148 | 0.0 | 1.7 | 0.00 | 0.00 | 0.00 | 82 | 1015.8 |
| 20260906132333 | 80 | 148 | 0.0 | 1.7 | 0.00 | 0.00 | 0.00 | 82 | 1015.7 |
| 20260906131828 | 79 | 148 | 0.0 | 1.7 | 0.00 | 0.00 | 0.00 | 83 | 1015.6 |
| 20260906131325 | 79 | 148 | 0.0 | 1.7 | 0.00 | 0.00 | 0.00 | 84 | 1015.5 |
| 20260906130826 | 78 | 148 | 0.0 | 0.0 | 0.00 | 0.00 | 0.00 | 85 | 1015.4 |
| 20260906130326 | 77 | 148 | 0.0 | 0.0 | 0.00 | 0.00 | 0.00 | 86 | 1015.3 |
| 20260906125824 | 76 | 148 | 0.0 | 0.0 | 0.00 | 0.00 | 0.00 | 86 | 1015.2 |
| 20260906125322 | 76 | 148 | 0.0 | 0.0 | 0.00 | 0.00 | 0.00 | 86 | 1015.2 |
| 20260906124822 | 76 | 148 | 0.0 | 0.0 | 0.00 | 0.00 | 0.00 | 86 | 1015.2 |
| 20260906124322 | 75 | 148 | 0.0 | 0.0 | 0.00 | 0.00 | 0.00 | 86 | 1015.0 |
| 20260906123820 | 75 | 148 | 0.0 | 0.0 | 0.00 | 0.00 | 0.00 | 85 | 1015.0 |
| 20260906123320 | 75 | 148 | 0.0 | 0.0 | 0.00 | 0.00 | 0.00 | 85 | 1014.9 |
| 20260906122820 | 75 | 148 | 0.0 | 0.0 | 0.00 | 0.00 | 0.00 | 85 | 1014.9 |
| 20260906122548 | 75 | 148 | 0.0 | 0.0 | 0.00 | 0.00 | 0.00 | 85 | 1014.8 |
| 20260906121821 | 75 | 148 | 0.0 | 0.0 | 0.00 | 0.00 | 0.00 | 86 | 1014.8 |
| 20260906121321 | 75 | 148 | 0.0 | 0.0 | 0.00 | 0.00 | 0.00 | 86 | 1014.8 |
| 20260906120816 | 75 | 148 | 0.0 | 0.0 | 0.00 | 0.00 | 0.00 | 85 | 1014.8 |
| 20260906120319 | 75 | 148 | 0.0 | 0.0 | 0.00 | 0.00 | 0.00 | 85 | 1014.7 |
| 20260906115819 | 75 | 148 | 0.0 | 0.0 | 0.00 | 0.00 | 0.00 | 86 | 1014.7 |
| 20260906115316 | 75 | 148 | 0.0 | 0.0 | 0.00 | 0.00 | 0.00 | 86 | 1014.6 |
| 20260906114816 | 75 | 148 | 0.0 | 0.0 | 0.00 | 0.00 | 0.00 | 86 | 1014.5 |
| 20260906114316 | 75 | 148 | 0.0 | 0.0 | 0.00 | 0.00 | 0.00 | 85 | 1014.5 |
| 20260906113816 | 75 | 148 | 0.0 | 0.0 | 0.00 | 0.00 | 0.00 | 85 | 1014.5 |
| 20260906113315 | 75 | 148 | 0.0 | 0.0 | 0.00 | 0.00 | 0.00 | 85 | 1014.5 |
| 20260906112815 | 75 | 148 | 0.0 | 0.0 | 0.00 | 0.00 | 0.00 | 85 | 1014.4 |
| 20260906112546 | 75 | 148 | 0.0 | 0.0 | 0.00 | 0.00 | 0.00 | 85 | 1014.3 |
| 20260906111816 | 75 | 148 | 0.0 | 0.0 | 0.00 | 0.00 | 0.00 | 85 | 1014.3 |
| 20260906111316 | 75 | 148 | 0.0 | 0.0 | 0.00 | 0.00 | 0.00 | 85 | 1014.3 |
| 20260906110816 | 75 | 148 | 0.0 | 0.0 | 0.00 | 0.00 | 0.00 | 85 | 1014.4 |
| 20260906110316 | 75 | 148 | 0.0 | 0.0 | 0.00 | 0.00 | 0.00 | 84 | 1014.3 |
| 20260906105816 | 75 | 148 | 0.0 | 0.0 | 0.00 | 0.00 | 0.00 | 84 | 1014.2 |
| 20260906105547 | 75 | 148 | 0.0 | 0.9 | 0.00 | 0.00 | 0.00 | 84 | 1014.2 |
| 20260906104816 | 75 | 148 | 0.0 | 2.6 | 0.00 | 0.00 | 0.00 | 84 | 1014.0 |
| 20260906104315 | 75 | 148 | 0.0 | 2.6 | 0.00 | 0.00 | 0.00 | 83 | 1013.8 |
| 20260906103808 | 75 | 148 | 0.0 | 0.9 | 0.00 | 0.00 | 0.00 | 83 | 1013.7 |
| 20260906103303 | 76 | 147 | 0.0 | 2.6 | 0.00 | 0.00 | 0.00 | 83 | 1013.6 |
| 20260906102757 | 76 | 147 | 0.0 | 2.6 | 0.00 | 0.00 | 0.00 | 84 | 1013.5 |
| 20260906102250 | 76 | 148 | 0.0 | 0.0 | 0.00 | 0.00 | 0.00 | 85 | 1013.6 |
| 20260906101743 | 76 | 148 | 0.0 | 0.0 | 0.00 | 0.00 | 0.00 | 84 | 1013.6 |
| 20260906101237 | 76 | 148 | 0.0 | 0.0 | 0.00 | 0.00 | 0.00 | 84 | 1013.6 |
| 20260906100730 | 76 | 148 | 0.0 | 0.0 | 0.00 | 0.00 | 0.00 | 83 | 1013.6 |
| 20260906100225 | 76 | 148 | 0.0 | 0.0 | 0.00 | 0.00 | 0.00 | 82 | 1013.6 |
| 20260906095719 | 76 | 148 | 0.0 | 0.0 | 0.00 | 0.00 | 0.00 | 82 | 1013.5 |
| 20260906095443 | 76 | 148 | 0.0 | 0.0 | 0.00 | 0.00 | 0.00 | 82 | 1013.4 |
| 20260906094707 | 76 | 148 | 0.0 | 0.0 | 0.00 | 0.00 | 0.00 | 82 | 1013.5 |
| 20260906094201 | 76 | 148 | 0.0 | 0.0 | 0.00 | 0.00 | 0.00 | 82 | 1013.4 |
| 20260906093655 | 76 | 148 | 0.0 | 0.9 | 0.00 | 0.00 | 0.00 | 82 | 1013.4 |
| 20260906093149 | 76 | 148 | 0.0 | 1.7 | 0.00 | 0.00 | 0.00 | 82 | 1013.4 |
| 20260906092643 | 77 | 148 | 0.0 | 1.7 | 0.00 | 0.00 | 0.00 | 83 | 1013.4 |
| 20260906092137 | 77 | 148 | 0.0 | 0.0 | 0.00 | 0.00 | 0.00 | 83 | 1013.4 |
| 20260906091901 | 77 | 149 | 0.0 | 0.0 | 0.00 | 0.00 | 0.00 | 82 | 1013.5 |
| 20260906091125 | 77 | 149 | 0.0 | 0.0 | 0.00 | 0.00 | 0.00 | 81 | 1013.4 |
| 20260906090619 | 77 | 149 | 0.0 | 0.0 | 0.00 | 0.00 | 0.00 | 81 | 1013.5 |
| 20260906085606 | 77 | 149 | 0.0 | 0.0 | 0.00 | 0.00 | 0.00 | 81 | 1013.5 |
| 20260906085100 | 78 | 149 | 0.0 | 0.0 | 0.00 | 0.00 | 0.00 | 81 | 1013.6 |
| 20260906084555 | 78 | 149 | 0.0 | 0.0 | 0.00 | 0.00 | 0.00 | 81 | 1013.7 |
| 20260906083543 | 78 | 149 | 0.0 | 0.0 | 0.00 | 0.00 | 0.00 | 80 | 1013.6 |
| 20260906083037 | 78 | 149 | 0.0 | 0.0 | 0.00 | 0.00 | 0.00 | 80 | 1013.7 |
| 20260906082531 | 78 | 149 | 0.0 | 0.0 | 0.00 | 0.00 | 0.00 | 80 | 1013.8 |
| 20260906082025 | 78 | 149 | 0.0 | 0.0 | 0.00 | 0.00 | 0.00 | 80 | 1013.8 |
| 20260906081012 | 79 | 149 | 0.0 | 0.0 | 0.00 | 0.00 | 0.00 | 79 | 1014.0 |
| 20260906080737 | 79 | 149 | 0.0 | 0.0 | 0.00 | 0.00 | 0.00 | 79 | 1014.1 |
| 20260906080002 | 79 | 149 | 0.0 | 0.0 | 0.00 | 0.00 | 0.00 | 79 | 1014.2 |
| 20260906075454 | 79 | 149 | 0.0 | 0.0 | 0.00 | 0.00 | 0.00 | 79 | 1014.3 |
| 20260906074442 | 79 | 149 | 0.0 | 1.7 | 0.00 | 0.00 | 0.00 | 78 | 1014.4 |
| 20260906073936 | 79 | 149 | 0.0 | 1.7 | 0.00 | 0.00 | 0.00 | 78 | 1014.4 |
| 20260906073431 | 79 | 149 | 0.0 | 2.6 | 0.00 | 0.00 | 0.00 | 78 | 1014.5 |
| 20260906072925 | 80 | 149 | 0.0 | 2.6 | 0.00 | 0.00 | 0.00 | 78 | 1014.5 |
| 20260906072419 | 80 | 149 | 0.9 | 6.1 | 0.00 | 0.00 | 0.00 | 78 | 1014.5 |
| 20260906072145 | 80 | 149 | 0.9 | 6.1 | 0.00 | 0.00 | 0.00 | 77 | 1014.7 |
| 20260906071407 | 80 | 161 | 0.9 | 5.2 | 0.00 | 0.00 | 0.00 | 77 | 1014.9 |
| 20260906070900 | 80 | 163 | 0.9 | 4.3 | 0.00 | 0.00 | 0.00 | 76 | 1015.0 |
| 20260906070627 | 80 | 163 | 1.7 | 7.0 | 0.00 | 0.00 | 0.00 | 76 | 1015.2 |
| 20260906065849 | 80 | 163 | 1.7 | 7.0 | 0.00 | 0.00 | 0.00 | 76 | 1015.0 |
| 20260906065614 | 80 | 219 | 0.9 | 5.2 | 0.00 | 0.00 | 0.00 | 75 | 1015.2 |
| 20260906065107 | 80 | 232 | 0.9 | 5.2 | 0.00 | 0.00 | 0.00 | 74 | 1015.3 |
| 20260906064331 | 80 | 227 | 1.7 | 7.0 | 0.00 | 0.00 | 0.00 | 74 | 1015.3 |
| 20260906064055 | 81 | 229 | 1.7 | 7.0 | 0.00 | 0.00 | 0.00 | 74 | 1015.3 |
| 20260906063319 | 81 | 184 | 1.7 | 7.0 | 0.00 | 0.00 | 0.00 | 73 | 1015.2 |
| 20260906062813 | 81 | 211 | 0.9 | 7.0 | 0.00 | 0.00 | 0.00 | 73 | 1015.2 |
| 20260906062311 | 81 | 153 | 0.9 | 2.6 | 0.00 | 0.00 | 0.00 | 72 | 1015.0 |
| 20260906061811 | 81 | 153 | 0.9 | 6.1 | 0.00 | 0.00 | 0.00 | 71 | 1015.2 |
| 20260906061311 | 82 | 154 | 1.7 | 7.8 | 0.00 | 0.00 | 0.00 | 71 | 1015.2 |
| 20260906060811 | 82 | 150 | 1.7 | 7.8 | 0.00 | 0.00 | 0.00 | 71 | 1015.3 |
| 20260906060311 | 82 | 169 | 2.6 | 7.0 | 0.00 | 0.00 | 0.00 | 70 | 1015.3 |
| 20260906055811 | 82 | 157 | 2.6 | 7.0 | 0.00 | 0.00 | 0.00 | 70 | 1015.3 |
| 20260906055312 | 82 | 169 | 1.7 | 6.1 | 0.00 | 0.00 | 0.00 | 70 | 1015.3 |
| 20260906054811 | 82 | 145 | 1.7 | 6.1 | 0.00 | 0.00 | 0.00 | 69 | 1015.4 |
| 20260906054309 | 82 | 144 | 1.7 | 9.6 | 0.00 | 0.00 | 0.00 | 69 | 1015.4 |
| 20260906053809 | 82 | 175 | 1.7 | 9.6 | 0.00 | 0.00 | 0.00 | 69 | 1015.3 |
| 20260906053309 | 83 | 169 | 0.9 | 5.2 | 0.00 | 0.00 | 0.00 | 68 | 1015.3 |
| 20260906052807 | 83 | 156 | 1.7 | 6.1 | 0.00 | 0.00 | 0.00 | 68 | 1015.2 |
| 20260906052306 | 83 | 143 | 1.7 | 6.1 | 0.00 | 0.00 | 0.00 | 68 | 1015.2 |
| 20260906051803 | 83 | 147 | 1.7 | 6.1 | 0.00 | 0.00 | 0.00 | 69 | 1015.3 |
| 20260906051302 | 83 | 188 | 1.7 | 6.1 | 0.00 | 0.00 | 0.00 | 70 | 1015.2 |
| 20260906050801 | 83 | 157 | 0.9 | 6.1 | 0.00 | 0.00 | 0.00 | 70 | 1015.3 |
| 20260906050300 | 83 | 220 | 0.9 | 4.3 | 0.00 | 0.00 | 0.00 | 70 | 1015.3 |
| 20260906045759 | 83 | 190 | 0.9 | 4.3 | 0.00 | 0.00 | 0.00 | 70 | 1015.3 |
| 20260906045252 | 83 | 171 | 0.9 | 4.3 | 0.00 | 0.00 | 0.00 | 70 | 1015.5 |
| 20260906044746 | 84 | 165 | 0.9 | 7.0 | 0.00 | 0.00 | 0.00 | 70 | 1015.5 |
| 20260906044240 | 84 | 161 | 1.7 | 7.0 | 0.00 | 0.00 | 0.00 | 69 | 1015.5 |
| 20260906043734 | 84 | 175 | 1.7 | 7.8 | 0.00 | 0.00 | 0.00 | 69 | 1015.4 |
| 20260906042722 | 84 | 237 | 2.6 | 7.0 | 0.00 | 0.00 | 0.00 | 68 | 1015.3 |
| 20260906042446 | 85 | 207 | 1.7 | 7.0 | 0.00 | 0.00 | 0.00 | 67 | 1015.4 |
| 20260906041710 | 85 | 180 | 2.6 | 7.8 | 0.00 | 0.00 | 0.00 | 66 | 1015.4 |
| 20260906041203 | 85 | 159 | 2.6 | 7.8 | 0.00 | 0.00 | 0.00 | 66 | 1015.4 |
| 20260906040658 | 85 | 184 | 1.7 | 7.8 | 0.00 | 0.00 | 0.00 | 66 | 1015.2 |
| 20260906040152 | 85 | 166 | 1.7 | 7.0 | 0.00 | 0.00 | 0.00 | 66 | 1015.2 |
| 20260906035646 | 85 | 150 | 1.7 | 6.1 | 0.00 | 0.00 | 0.00 | 65 | 1015.0 |
| 20260906035140 | 85 | 171 | 2.6 | 7.8 | 0.00 | 0.00 | 0.00 | 65 | 1015.0 |
| 20260906034634 | 86 | 142 | 2.6 | 7.8 | 0.00 | 0.00 | 0.00 | 65 | 1014.9 |
| 20260906034400 | 86 | 153 | 1.7 | 5.2 | 0.00 | 0.00 | 0.00 | 64 | 1014.9 |
| 20260906033622 | 86 | 148 | 1.7 | 7.0 | 0.00 | 0.00 | 0.00 | 64 | 1014.8 |
| 20260906033117 | 86 | 171 | 2.6 | 8.7 | 0.00 | 0.00 | 0.00 | 63 | 1014.7 |
| 20260906032610 | 87 | 105 | 2.6 | 7.8 | 0.00 | 0.00 | 0.00 | 63 | 1014.5 |
| 20260906032335 | 87 | 166 | 2.6 | 10.4 | 0.00 | 0.00 | 0.00 | 62 | 1014.4 |
| 20260906031558 | 87 | 111 | 2.6 | 9.6 | 0.00 | 0.00 | 0.00 | 61 | 1014.3 |
| 20260906031052 | 87 | 150 | 1.7 | 7.8 | 0.00 | 0.00 | 0.00 | 60 | 1014.3 |
| 20260906030546 | 88 | 179 | 1.7 | 6.1 | 0.00 | 0.00 | 0.00 | 58 | 1014.2 |
| 20260906030040 | 88 | 144 | 1.7 | 6.1 | 0.00 | 0.00 | 0.00 | 57 | 1014.1 |
| 20260906025534 | 88 | 175 | 1.7 | 6.1 | 0.00 | 0.00 | 0.00 | 55 | 1013.9 |
| 20260906025028 | 88 | 157 | 1.7 | 5.2 | 0.00 | 0.00 | 0.00 | 54 | 1013.9 |
| 20260906024522 | 87 | 163 | 0.9 | 5.2 | 0.00 | 0.00 | 0.00 | 54 | 1013.8 |
| 20260906024015 | 87 | 155 | 0.9 | 8.7 | 0.00 | 0.00 | 0.00 | 54 | 1013.6 |
| 20260906023740 | 87 | 155 | 0.9 | 8.7 | 0.00 | 0.00 | 0.00 | 54 | 1013.5 |
| 20260906023004 | 87 | 115 | 0.0 | 1.7 | 0.00 | 0.00 | 0.00 | 55 | 1013.3 |
| 20260906022458 | 87 | 115 | 0.0 | 0.9 | 0.00 | 0.00 | 0.00 | 56 | 1013.1 |
| 20260906021952 | 87 | 115 | 0.0 | 0.9 | 0.00 | 0.00 | 0.00 | 57 | 1013.0 |
| 20260906021446 | 87 | 115 | 0.0 | 0.0 | 0.00 | 0.00 | 0.00 | 57 | 1012.9 |
| 20260906020940 | 87 | 115 | 0.0 | 0.0 | 0.00 | 0.00 | 0.00 | 57 | 1012.8 |
| 20260906020433 | 87 | 115 | 0.0 | 0.0 | 0.00 | 0.00 | 0.00 | 56 | 1012.6 |
| 20260906020205 | 88 | 115 | 0.0 | 0.0 | 0.00 | 0.00 | 0.00 | 56 | 1012.7 |
| 20260906015435 | 88 | 115 | 0.0 | 0.0 | 0.00 | 0.00 | 0.00 | 55 | 1012.6 |
| 20260906014930 | 88 | 115 | 0.0 | 0.0 | 0.00 | 0.00 | 0.00 | 54 | 1012.5 |
| 20260906014428 | 88 | 115 | 0.0 | 0.0 | 0.00 | 0.00 | 0.00 | 53 | 1012.5 |
| 20260906013926 | 88 | 115 | 0.0 | 0.0 | 0.00 | 0.00 | 0.00 | 54 | 1012.4 |
| 20260906013426 | 89 | 115 | 0.0 | 0.0 | 0.00 | 0.00 | 0.00 | 53 | 1012.4 |
| 20260906012926 | 89 | 115 | 0.0 | 0.0 | 0.00 | 0.00 | 0.00 | 53 | 1012.4 |
| 20260906012424 | 89 | 115 | 0.0 | 0.0 | 0.00 | 0.00 | 0.00 | 52 | 1012.4 |
| 20260906011924 | 89 | 115 | 0.0 | 0.0 | 0.00 | 0.00 | 0.00 | 52 | 1012.2 |
| 20260906011424 | 90 | 115 | 0.0 | 0.0 | 0.00 | 0.00 | 0.00 | 51 | 1012.2 |
| 20260906011155 | 90 | 115 | 0.0 | 0.0 | 0.00 | 0.00 | 0.00 | 51 | 1012.1 |
| 20260906005919 | 90 | 115 | 0.0 | 0.9 | 0.00 | 0.00 | 0.00 | 51 | 1012.1 |
| 20260906005419 | 91 | 115 | 0.0 | 2.6 | 0.00 | 0.00 | 0.00 | 51 | 1012.1 |
| 20260906004919 | 91 | 115 | 0.9 | 2.6 | 0.00 | 0.00 | 0.00 | 50 | 1012.2 |
| 20260906004420 | 91 | 115 | 0.9 | 3.5 | 0.00 | 0.00 | 0.00 | 50 | 1012.1 |
| 20260906003919 | 91 | 113 | 0.9 | 3.5 | 0.00 | 0.00 | 0.00 | 50 | 1012.1 |
| 20260906003422 | 91 | 123 | 0.9 | 3.5 | 0.00 | 0.00 | 0.00 | 50 | 1012.1 |
| 20260906002922 | 92 | 123 | 0.9 | 4.3 | 0.00 | 0.00 | 0.00 | 50 | 1012.1 |
| 20260906002422 | 92 | 123 | 1.7 | 5.2 | 0.00 | 0.00 | 0.00 | 50 | 1012.1 |
| 20260906001923 | 92 | 114 | 1.7 | 5.2 | 0.00 | 0.00 | 0.00 | 50 | 1012.0 |
| 20260906001416 | 92 | 121 | 1.7 | 6.1 | 0.00 | 0.00 | 0.00 | 50 | 1011.9 |
| 20260906001145 | 92 | 98 | 2.6 | 7.8 | 0.00 | 0.00 | 0.00 | 50 | 1011.9 |
| 20260906000414 | 92 | 94 | 2.6 | 7.8 | 0.00 | 0.00 | 0.00 | 50 | 1012.0 |
| 20260905235914 | 93 | 91 | 2.6 | 7.8 | 0.00 | 0.00 | 0.00 | 49 | 1011.9 |
| 20260905235418 | 93 | 115 | 2.6 | 7.8 | 0.00 | 0.00 | 0.00 | 49 | 1011.9 |
| 20260905234914 | 94 | 94 | 2.6 | 7.8 | 0.00 | 0.00 | 0.00 | 49 | 1011.9 |
| 20260905234414 | 94 | 104 | 1.7 | 7.0 | 0.00 | 0.00 | 0.00 | 49 | 1011.8 |
| 20260905233914 | 94 | 126 | 1.7 | 5.2 | 0.00 | 0.00 | 0.00 | 48 | 1011.9 |
| 20260905233414 | 94 | 115 | 1.7 | 6.1 | 0.00 | 0.00 | 0.00 | 48 | 1011.8 |
| 20260905232913 | 94 | 116 | 0.9 | 6.1 | 0.00 | 0.00 | 0.00 | 48 | 1012.0 |
| 20260905232644 | 94 | 106 | 1.7 | 6.1 | 0.00 | 0.00 | 0.00 | 47 | 1012.0 |
| 20260905231914 | 94 | 106 | 1.7 | 6.1 | 0.00 | 0.00 | 0.00 | 47 | 1012.0 |
| 20260905231413 | 95 | 144 | 1.7 | 6.1 | 0.00 | 0.00 | 0.00 | 47 | 1011.9 |
| 20260905231144 | 95 | 134 | 1.7 | 6.1 | 0.00 | 0.00 | 0.00 | 47 | 1012.0 |
| 20260905225916 | 95 | 27 | 0.9 | 6.1 | 0.00 | 0.00 | 0.00 | 47 | 1012.1 |